N2235 KLIT-K32A

Flight info

Callsign N2235
Flight time 0h 44m
Altitude VFR
Route
Aircraft C172/L-DOV/C

Departure

Time 2026-05-05 19:57
Airport Bill & Hillary Clinton National Airport/Adams Field (KLIT)

Arrival

Time 2026-05-05 20:42
Airport Danville Municipal Airport (K32A)
Time Latitude Longitude Altitude Speed Heading
2026-05-05 19:43 34.73664 -92.23995 262 ft 0 kts 140°
2026-05-05 19:53 34.73664 -92.23994 262 ft 1 kts 140°
2026-05-05 19:53 34.73671 -92.23968 262 ft 4 kts 38°
2026-05-05 19:53 34.73707 -92.23952 262 ft 8 kts
2026-05-05 19:54 34.73784 -92.23950 262 ft 12 kts
2026-05-05 19:54 34.73880 -92.23948 262 ft 12 kts
2026-05-05 19:54 34.73946 -92.23942 262 ft 6 kts 17°
2026-05-05 19:54 34.73962 -92.23931 262 ft 4 kts 40°
2026-05-05 19:55 34.73974 -92.23909 262 ft 0 kts 66°
2026-05-05 19:56 34.73969 -92.23839 262 ft 15 kts 102°
2026-05-05 19:56 34.73818 -92.23816 260 ft 42 kts 181°
2026-05-05 19:56 34.73401 -92.23817 312 ft 71 kts 181°
2026-05-05 19:56 34.72912 -92.23791 486 ft 69 kts 176°
2026-05-05 19:57 34.72423 -92.23691 617 ft 75 kts 176°
2026-05-05 19:57 34.72072 -92.23648 746 ft 76 kts 176°
2026-05-05 19:57 34.71413 -92.23427 970 ft 81 kts 131°
2026-05-05 19:57 34.71418 -92.22684 1048 ft 101 kts 64°
2026-05-05 19:58 34.71796 -92.22357 1106 ft 105 kts 25°
2026-05-05 19:58 34.72442 -92.21996 1267 ft 99 kts 30°
2026-05-05 19:58 34.73089 -92.21640 1316 ft 106 kts 22°
2026-05-05 19:58 34.74071 -92.21449 1443 ft 108 kts 337°
2026-05-05 19:59 34.74612 -92.21999 1539 ft 103 kts 294°
2026-05-05 19:59 34.74859 -92.22510 1584 ft 105 kts 288°
2026-05-05 19:59 34.75176 -92.23315 1665 ft 107 kts 283°
2026-05-05 19:59 34.75447 -92.24137 1785 ft 102 kts 278°
2026-05-05 20:00 34.75626 -92.25002 1738 ft 112 kts 272°
2026-05-05 20:00 34.75746 -92.25934 1806 ft 107 kts 267°
2026-05-05 20:00 34.75812 -92.26844 1795 ft 110 kts 266°
2026-05-05 20:00 34.75684 -92.27703 1795 ft 102 kts 238°
2026-05-05 20:01 34.75545 -92.28571 1803 ft 108 kts 263°
2026-05-05 20:01 34.75727 -92.29479 1806 ft 111 kts 276°
2026-05-05 20:01 34.75956 -92.30369 1811 ft 110 kts 278°
2026-05-05 20:01 34.76202 -92.31258 1814 ft 112 kts 278°
2026-05-05 20:02 34.76466 -92.32174 1805 ft 116 kts 279°
2026-05-05 20:02 34.76737 -92.33098 1796 ft 117 kts 279°
2026-05-05 20:02 34.77012 -92.34017 1817 ft 112 kts 279°
2026-05-05 20:02 34.77271 -92.34888 1939 ft 109 kts 279°
2026-05-05 20:03 34.77521 -92.35750 2063 ft 107 kts 279°
2026-05-05 20:03 34.77770 -92.36586 2173 ft 103 kts 279°
2026-05-05 20:03 34.78006 -92.37370 2289 ft 94 kts 278°
2026-05-05 20:03 34.78225 -92.38117 2412 ft 93 kts 276°
2026-05-05 20:04 34.78435 -92.38845 2521 ft 89 kts 276°
2026-05-05 20:04 34.78649 -92.39547 2643 ft 87 kts 276°
2026-05-05 20:04 34.78849 -92.40232 2759 ft 85 kts 276°
2026-05-05 20:04 34.79044 -92.40891 2876 ft 82 kts 276°
2026-05-05 20:05 34.79236 -92.41535 2993 ft 80 kts 275°
2026-05-05 20:05 34.79421 -92.42163 3119 ft 79 kts 275°
2026-05-05 20:05 34.79609 -92.42808 3238 ft 82 kts 275°
2026-05-05 20:05 34.79799 -92.43453 3364 ft 82 kts 275°
2026-05-05 20:06 34.79996 -92.44117 3491 ft 84 kts 275°
2026-05-05 20:06 34.80192 -92.44792 3614 ft 85 kts 275°
2026-05-05 20:06 34.80399 -92.45470 3740 ft 85 kts 275°
2026-05-05 20:06 34.80596 -92.46143 3857 ft 85 kts 276°
2026-05-05 20:07 34.80795 -92.46816 3975 ft 84 kts 276°
2026-05-05 20:07 34.81002 -92.47486 4100 ft 85 kts 274°
2026-05-05 20:07 34.81189 -92.48155 4231 ft 85 kts 275°
2026-05-05 20:07 34.81391 -92.48843 4312 ft 90 kts 275°
2026-05-05 20:08 34.81605 -92.49595 4335 ft 98 kts 277°
2026-05-05 20:08 34.81855 -92.50402 4318 ft 103 kts 277°
2026-05-05 20:08 34.82091 -92.51221 4308 ft 102 kts 276°
2026-05-05 20:08 34.82336 -92.52040 4311 ft 103 kts 277°
2026-05-05 20:09 34.82581 -92.52856 4307 ft 105 kts 277°
2026-05-05 20:09 34.82829 -92.53701 4313 ft 104 kts 276°
2026-05-05 20:09 34.83084 -92.54528 4313 ft 106 kts 276°
2026-05-05 20:09 34.83324 -92.55380 4325 ft 107 kts 278°
2026-05-05 20:10 34.83561 -92.56245 4303 ft 109 kts 278°
2026-05-05 20:10 34.83835 -92.57110 4314 ft 110 kts 279°
2026-05-05 20:10 34.84085 -92.57978 4300 ft 108 kts 277°
2026-05-05 20:10 34.84335 -92.58831 4295 ft 106 kts 277°
2026-05-05 20:11 34.84580 -92.59662 4295 ft 104 kts 277°
2026-05-05 20:11 34.84823 -92.60487 4292 ft 103 kts 277°
2026-05-05 20:11 34.85062 -92.61300 4295 ft 101 kts 277°
2026-05-05 20:11 34.85297 -92.62101 4293 ft 100 kts 277°
2026-05-05 20:12 34.85528 -92.62888 4294 ft 100 kts 277°
2026-05-05 20:12 34.85761 -92.63680 4294 ft 99 kts 277°
2026-05-05 20:12 34.85990 -92.64464 4296 ft 98 kts 278°
2026-05-05 20:12 34.86221 -92.65240 4296 ft 97 kts 277°
2026-05-05 20:13 34.86448 -92.66024 4300 ft 99 kts 278°
2026-05-05 20:13 34.86679 -92.66810 4294 ft 97 kts 275°
2026-05-05 20:13 34.86903 -92.67594 4309 ft 100 kts 277°
2026-05-05 20:13 34.87142 -92.68398 4311 ft 102 kts 277°
2026-05-05 20:14 34.87379 -92.69204 4311 ft 102 kts 277°
2026-05-05 20:14 34.87640 -92.70017 4303 ft 104 kts 278°
2026-05-05 20:14 34.87871 -92.70842 4353 ft 105 kts 277°
2026-05-05 20:14 34.88106 -92.71711 4298 ft 108 kts 278°
2026-05-05 20:15 34.88362 -92.72565 4291 ft 106 kts 277°
2026-05-05 20:15 34.88610 -92.73404 4296 ft 103 kts 277°
2026-05-05 20:15 34.88850 -92.74223 4292 ft 102 kts 277°
2026-05-05 20:15 34.89085 -92.75027 4302 ft 103 kts 278°
2026-05-05 20:16 34.89323 -92.75855 4300 ft 103 kts 277°
2026-05-05 20:16 34.89570 -92.76687 4311 ft 106 kts 279°
2026-05-05 20:16 34.89831 -92.77545 4321 ft 110 kts 279°
2026-05-05 20:16 34.90072 -92.78467 4296 ft 117 kts 281°
2026-05-05 20:17 34.90349 -92.79377 4307 ft 112 kts 277°
2026-05-05 20:17 34.90631 -92.80281 4251 ft 118 kts 279°
2026-05-05 20:17 34.90877 -92.81176 4298 ft 111 kts 278°
2026-05-05 20:17 34.91142 -92.82070 4298 ft 111 kts 278°
2026-05-05 20:18 34.91401 -92.82938 4280 ft 107 kts 277°
2026-05-05 20:18 34.91643 -92.83779 4288 ft 104 kts 277°
2026-05-05 20:18 34.91884 -92.84607 4285 ft 103 kts 277°
2026-05-05 20:18 34.92118 -92.85419 4287 ft 100 kts 277°
2026-05-05 20:19 34.92351 -92.86217 4287 ft 99 kts 276°
2026-05-05 20:19 34.92579 -92.87005 4283 ft 100 kts 276°
2026-05-05 20:19 34.92812 -92.87805 4288 ft 100 kts 277°
2026-05-05 20:19 34.93046 -92.88614 4294 ft 102 kts 277°
2026-05-05 20:20 34.93284 -92.89430 4291 ft 102 kts 277°
2026-05-05 20:20 34.93521 -92.90249 4281 ft 102 kts 277°
2026-05-05 20:20 34.93759 -92.91061 4279 ft 101 kts 277°
2026-05-05 20:20 34.93994 -92.91869 4281 ft 101 kts 277°
2026-05-05 20:21 34.94224 -92.92660 4279 ft 100 kts 277°
2026-05-05 20:21 34.94455 -92.93457 4285 ft 100 kts 277°
2026-05-05 20:21 34.94686 -92.94252 4285 ft 99 kts 277°
2026-05-05 20:21 34.94917 -92.95046 4285 ft 99 kts 277°
2026-05-05 20:22 34.95145 -92.95834 4282 ft 98 kts 276°
2026-05-05 20:22 34.95373 -92.96619 4281 ft 98 kts 276°
2026-05-05 20:22 34.95599 -92.97401 4290 ft 97 kts 277°
2026-05-05 20:22 34.95822 -92.98157 4281 ft 92 kts 276°
2026-05-05 20:23 34.96030 -92.98870 4279 ft 87 kts 276°
2026-05-05 20:23 34.96228 -92.99555 4275 ft 84 kts 275°
2026-05-05 20:23 34.96418 -93.00216 4276 ft 83 kts 276°
2026-05-05 20:23 34.96609 -93.00879 4279 ft 83 kts 275°
2026-05-05 20:24 34.96802 -93.01547 4277 ft 84 kts 276°
2026-05-05 20:24 34.97000 -93.02217 4291 ft 83 kts 277°
2026-05-05 20:24 34.97190 -93.02888 4277 ft 85 kts 275°
2026-05-05 20:24 34.97385 -93.03572 4277 ft 86 kts 276°
2026-05-05 20:25 34.97590 -93.04271 4299 ft 90 kts 278°
2026-05-05 20:25 34.97790 -93.05008 4319 ft 90 kts 270°
2026-05-05 20:25 34.98048 -93.05751 4229 ft 103 kts 281°
2026-05-05 20:25 34.98251 -93.06608 4145 ft 110 kts 281°
2026-05-05 20:26 34.98519 -93.07468 4039 ft 107 kts 281°
2026-05-05 20:26 34.98750 -93.08276 3932 ft 95 kts 278°
2026-05-05 20:26 34.98974 -93.09044 3828 ft 96 kts 279°
2026-05-05 20:26 34.99193 -93.09800 3711 ft 90 kts 278°
2026-05-05 20:27 34.99390 -93.10477 3604 ft 81 kts 277°
2026-05-05 20:27 34.99599 -93.11125 3501 ft 81 kts 270°
2026-05-05 20:27 34.99766 -93.11811 3412 ft 88 kts 279°
2026-05-05 20:27 34.99957 -93.12492 3291 ft 84 kts 277°
2026-05-05 20:28 35.00171 -93.13191 3205 ft 89 kts 276°
2026-05-05 20:28 35.00381 -93.13924 3108 ft 93 kts 278°
2026-05-05 20:28 35.00602 -93.14687 3031 ft 98 kts 278°
2026-05-05 20:28 35.00819 -93.15441 2914 ft 88 kts 277°
2026-05-05 20:29 35.01016 -93.16136 2806 ft 87 kts 277°
2026-05-05 20:29 35.01219 -93.16839 2701 ft 87 kts 276°
2026-05-05 20:29 35.01423 -93.17545 2602 ft 90 kts 278°
2026-05-05 20:29 35.01633 -93.18282 2516 ft 95 kts 280°
2026-05-05 20:30 35.01858 -93.19065 2424 ft 100 kts 279°
2026-05-05 20:30 35.02094 -93.19883 2336 ft 103 kts 280°
2026-05-05 20:30 35.02334 -93.20709 2272 ft 101 kts 280°
2026-05-05 20:30 35.02562 -93.21500 2268 ft 97 kts 279°
2026-05-05 20:31 35.02783 -93.22268 2259 ft 94 kts 277°
2026-05-05 20:31 35.02993 -93.22988 2256 ft 89 kts 277°
2026-05-05 20:31 35.03192 -93.23687 2256 ft 86 kts 276°
2026-05-05 20:31 35.03391 -93.24383 2258 ft 87 kts 276°
2026-05-05 20:32 35.03590 -93.25077 2252 ft 84 kts 275°
2026-05-05 20:32 35.03775 -93.25714 2258 ft 76 kts 274°
2026-05-05 20:32 35.03948 -93.26316 2256 ft 72 kts 271°
2026-05-05 20:32 35.04111 -93.26878 2255 ft 69 kts 272°
2026-05-05 20:33 35.04261 -93.27409 2255 ft 60 kts 270°
2026-05-05 20:33 35.04388 -93.27852 2250 ft 52 kts 268°
2026-05-05 20:33 35.04478 -93.28239 2242 ft 48 kts 251°
2026-05-05 20:33 35.04617 -93.28799 2084 ft 87 kts 280°
2026-05-05 20:34 35.04960 -93.29521 2044 ft 106 kts 290°
2026-05-05 20:34 35.05382 -93.30289 2072 ft 109 kts 291°
2026-05-05 20:34 35.05802 -93.31080 2058 ft 112 kts 286°
2026-05-05 20:34 35.06175 -93.31921 1916 ft 111 kts 282°
2026-05-05 20:35 35.06419 -93.32850 1668 ft 121 kts 282°
2026-05-05 20:35 35.06710 -93.33799 1510 ft 117 kts 283°
2026-05-05 20:35 35.06963 -93.34695 1461 ft 109 kts 284°
2026-05-05 20:35 35.07277 -93.35543 1368 ft 110 kts 289°
2026-05-05 20:36 35.07649 -93.36355 1340 ft 106 kts 289°
2026-05-05 20:36 35.07949 -93.37149 1356 ft 101 kts 284°
2026-05-05 20:36 35.08175 -93.37954 1362 ft 102 kts 282°
2026-05-05 20:36 35.08437 -93.38763 1385 ft 103 kts 283°
2026-05-05 20:37 35.08693 -93.39584 1390 ft 103 kts 284°
2026-05-05 20:37 35.08882 -93.40111 1358 ft 101 kts 284°
2026-05-05 20:37 35.09326 -93.41052 1428 ft 90 kts 295°
2026-05-05 20:37 35.09651 -93.41723 1370 ft 99 kts 289°
2026-05-05 20:38 35.09997 -93.42464 1391 ft 99 kts 292°
2026-05-05 20:38 35.10328 -93.43204 1417 ft 99 kts 291°
2026-05-05 20:38 35.10638 -93.43962 1360 ft 106 kts 290°
2026-05-05 20:38 35.10930 -93.44753 1419 ft 100 kts 286°
2026-05-05 20:39 35.11207 -93.45521 1429 ft 97 kts 284°
2026-05-05 20:39 35.11499 -93.46257 1388 ft 100 kts 289°
2026-05-05 20:39 35.11645 -93.47017 1386 ft 86 kts 247°
2026-05-05 20:39 35.11266 -93.47520 1325 ft 73 kts 212°
2026-05-05 20:40 35.10831 -93.47786 1203 ft 70 kts 198°
2026-05-05 20:40 35.10326 -93.47548 991 ft 93 kts 141°
2026-05-05 20:40 35.09992 -93.46899 939 ft 85 kts 137°
2026-05-05 20:40 35.09683 -93.46288 877 ft 85 kts 129°
2026-05-05 20:41 35.09443 -93.45623 812 ft 84 kts 129°
2026-05-05 20:41 35.09237 -93.44937 623 ft 86 kts 122°
2026-05-05 20:41 35.09072 -93.44264 538 ft 78 kts 115°
2026-05-05 20:41 35.08917 -93.43654 424 ft 76 kts 115°
2026-05-05 20:42 35.08773 -93.43084 385 ft 63 kts 99°
2026-05-05 20:42 35.08669 -93.42653 382 ft 42 kts 107°
2026-05-05 20:42 35.08601 -93.42381 386 ft 24 kts 109°
2026-05-05 20:42 35.08607 -93.42349 386 ft 10 kts 278°
2026-05-05 20:43 35.08625 -93.42452 384 ft 16 kts 284°
2026-05-05 20:43 35.08659 -93.42610 382 ft 22 kts 284°
2026-05-05 20:43 35.08700 -93.42787 383 ft 20 kts 283°
2026-05-05 20:43 35.08734 -93.42943 383 ft 19 kts 287°
2026-05-05 20:44 35.08773 -93.43100 385 ft 18 kts 285°
2026-05-05 20:44 35.08802 -93.43224 383 ft 14 kts 284°
2026-05-05 20:44 35.08815 -93.43335 380 ft 12 kts 236°
2026-05-05 20:44 35.08774 -93.43366 380 ft 4 kts 205°
2026-05-05 20:45 35.08753 -93.43378 382 ft 0 kts 202°